#timestamp,LO_Frequency,Hit,StdDev 
1558162815.2,286047002.8,N
1558162835.9,286047003.8,N
1558162855.7,286047001.4,N
1558162875.6,286047002.0,N
1558162895.4,286047002.8,N
1558162915.2,286047002.3,N
1558162935.1,286047006.0,Y
1558162936.0,286047006.0,P
1558162955.8,286047004.3,N
1558162975.7,286047001.5,N
1558162995.5,286047003.7,N
1558163015.3,286047003.4,N
1558163035.2,286047002.9,N
1558163055.0,286047003.2,N
1558163055.9,286047003.2,N
1558163075.7,286047003.4,N
1558163095.6,286047007.4,Y
1558163115.4,286047003.3,P
1558163135.3,286047003.4,P
1558163155.1,286047000.7,P
1558163175.8,286047001.0,N
1558163195.7,286047000.2,N
1558163215.5,286046998.7,N
1558163235.4,286047001.1,N
1558163255.2,286046998.2,N
1558163275.0,286046997.1,N
1558163275.9,286046997.1,N
1558163295.8,286046995.7,N
1558163315.6,286046999.6,N
1558163335.4,286046997.9,N
1558163355.3,286046993.7,N
1558163375.1,286046994.2,N
1558163395.9,286046993.0,N
1558163415.7,286046991.7,N
1558163435.5,286046993.9,N
1558163455.4,286046986.3,Y
1558163475.2,286046997.5,P
1558163495.1,286046998.0,P
1558163496.0,286046998.0,P
1558163515.8,286046995.2,Y
1558163535.7,286046996.8,P
1558163555.5,286046999.8,N
1558163575.3,286047002.2,N
1558163595.2,286047002.7,N
1558163615.0,286047000.6,N
1558163615.9,286047000.6,N
1558163635.8,286046998.8,N
1558163655.6,286046999.4,N
1558163675.4,286047000.7,N
1558163695.3,286047000.1,N
1558163715.1,286047002.7,N
1558163735.8,286047000.0,N
1558163755.7,286046999.8,N
1558163775.5,286047001.1,N
1558163795.4,286047001.0,N
1558163815.2,286046999.9,N
1558163835.0,286047004.3,N
1558163835.9,286047004.3,N
1558163855.8,286046999.7,N
1558163875.6,286047000.9,N
1558163895.5,286046998.4,N
1558163915.3,286046998.2,N
1558163935.1,286047001.1,N
1558163955.9,286047000.9,N
1558163975.7,286046998.3,N
1558163995.5,286046996.8,N
1558164015.4,286046998.6,N
1558164035.2,286047002.2,N
1558164055.0,286047000.3,N
1558164056.0,286047000.3,N
1558164075.8,286047000.0,N
1558164095.6,286047002.6,N
1558164115.5,286047002.2,N
1558164135.3,286047005.4,Y
1558164155.2,286047003.7,P
1558164175.9,286047005.5,P
1558164195.7,286047004.4,N
1558164215.6,286047003.6,N
1558164235.4,286047006.0,Y
1558164255.2,286047000.3,P
1558164275.1,286046996.8,N
1558164276.0,286046996.8,N
1558164295.8,286046996.4,N
1558164315.7,286046993.9,N
1558164335.5,286046995.7,N
1558164355.3,286046995.3,N
1558164375.2,286046995.1,N
1558164395.0,286046997.2,N
1558164395.9,286046997.2,N
1558164415.8,286046993.8,N
1558164435.6,286046994.7,N
1558164455.4,286046992.1,Y
1558164475.3,286046997.0,P
1558164495.1,286046999.5,P
1558164515.9,286047011.9,P
1558164535.7,286047001.5,N
1558164555.5,286047004.1,N
1558164575.4,286046999.8,N
1558164595.2,286047000.2,N
1558164615.0,286046998.4,N
1558164615.9,286046998.4,N
1558164635.8,286046998.3,N
1558164655.6,286047000.1,N
1558164675.5,286047000.1,N
1558164695.3,286047003.2,N
1558164715.1,286047003.0,N
1558164735.9,286047005.3,N
1558164755.7,286047002.9,N
1558164775.5,286047005.9,N
1558164795.4,286047004.7,N
1558164815.2,286047004.6,N
1558164835.1,286047003.5,N
1558164836.0,286047003.5,N
1558164855.8,286047007.2,N
1558164875.6,286047005.1,N
1558164895.5,286047004.0,N
1558164915.3,286047001.6,N
1558164935.1,286047003.7,N
1558164955.9,286047004.2,N
1558164975.7,286047003.6,N
1558164995.6,286047002.9,N
1558165015.4,286047006.0,N
1558165035.2,286047002.5,N
1558165055.1,286047002.4,N
1558165056.0,286047002.4,N
1558165075.8,286047000.4,N
1558165095.6,286047000.5,N
1558165115.5,286047000.6,N
1558165135.3,286047000.3,N
1558165155.2,286047002.6,N
1558165175.9,286047001.0,N
1558165195.7,286047000.4,N
1558165215.6,286046999.7,N
1558165235.4,286047002.0,N
1558165255.2,286047001.4,N
1558165275.1,286047003.2,N
1558165276.0,286047003.2,N
1558165295.8,286047003.1,N
1558165315.7,286047005.7,Y
1558165335.5,286047002.1,P
1558165355.3,286047000.0,N
1558165375.2,286046998.7,N
1558165395.0,286046999.9,N
1558165395.9,286046999.9,N
1558165415.8,286046996.7,N
1558165435.6,286046996.2,N
1558165455.4,286046995.9,N
1558165475.3,286046996.3,N
1558165495.1,286046998.0,N
1558165496.0,286046998.0,N
1558165515.8,286046997.1,N
1558165535.7,286046997.7,N
1558165555.5,286046998.6,N
1558165575.4,286046994.9,N
1558165595.2,286046996.8,N
1558165615.0,286046998.0,N
1558165615.9,286046998.0,N
1558165635.8,286046995.3,N
1558165655.6,286046995.2,N
1558165675.5,286046995.0,N
1558165695.3,286046994.2,N
1558165715.1,286046994.4,N
1558165735.9,286046994.3,N
1558165755.7,286046994.2,N
1558165775.5,286046994.6,N
1558165795.4,286046990.2,Y
1558165815.2,286046993.8,P
1558165835.1,286046993.6,P
1558165836.0,286046993.6,P
1558165855.8,286046994.2,Y
1558165875.6,286047001.1,P
1558165895.5,286046999.8,N
1558165915.3,286047004.0,N
1558165935.1,286047003.3,N
1558165955.9,286047001.5,N
1558165975.7,286047001.7,N
1558165995.6,286047002.5,N
1558166015.4,286047001.2,N
1558166035.2,286047000.0,N
1558166055.1,286047003.9,N
1558166056.0,286047003.9,N
1558166075.8,286047002.4,N
1558166095.7,286046999.7,N
1558166115.5,286046999.9,N
1558166135.3,286046998.4,N
1558166155.2,286046999.2,N
1558166175.9,286046999.3,N
1558166195.7,286046998.3,N
1558166215.6,286047002.5,N
1558166235.4,286047000.1,N
1558166255.2,286046999.9,N
1558166275.1,286047001.5,N
1558166276.0,286047001.5,N
1558166295.8,286047004.9,N
1558166315.7,286047004.6,N
1558166335.5,286047005.1,N
1558166355.3,286047005.5,N
1558166375.2,286047002.0,N
1558166395.4,286047000.5,N
